PRIVATE WETTERSTATION BILLIGHEIM-ALLFELD                       ZURCK
Wetterdaten: Freitag, 19.05.2017
Datum Zeit Temp. A. Temp. A. min Temp. A. max Feuchte A. Luftdruck Regen Wind Richtung Richtung Sonnenschein ET Solar Taupunkt Windchill Windben Empfang
19.05.2017 00:00 15,8 C 15,8 C 15,9 C 89 % 1008,1 hPa 0,0 l/m 1,6 km/h (1 Bft) NW 315 0 min 0,000 mm 0 W/m 14,0 C 15,8 C 4,8 km/h (1 Bft) 99 %
19.05.2017 00:10 15,7 C 15,7 C 15,8 C 89 % 1007,9 hPa 0,0 l/m 1,6 km/h (1 Bft) NW 315 0 min 0,000 mm 0 W/m 13,9 C 15,7 C 4,8 km/h (1 Bft) 99 %
19.05.2017 00:20 15,6 C 15,6 C 15,7 C 90 % 1007,9 hPa 0,0 l/m 3,2 km/h (1 Bft) NW 315 0 min 0,000 mm 0 W/m 14,0 C 15,6 C 6,4 km/h (2 Bft) 89 %
19.05.2017 00:30 15,5 C 15,5 C 15,6 C 90 % 1007,9 hPa 0,0 l/m 1,6 km/h (1 Bft) NW 315 0 min 0,000 mm 0 W/m 13,9 C 15,5 C 4,8 km/h (1 Bft) 100 %
19.05.2017 00:40 15,4 C 15,4 C 15,6 C 90 % 1007,7 hPa 0,0 l/m 0,0 km/h (0 Bft) N 0 0 min 0,000 mm 0 W/m 13,8 C 15,4 C 0,0 km/h (0 Bft) 100 %
19.05.2017 00:50 15,4 C 15,4 C 15,4 C 90 % 1007,6 hPa 0,0 l/m 0,0 km/h (0 Bft) NW 315 0 min 0,000 mm 0 W/m 13,8 C 15,4 C 1,6 km/h (1 Bft) 100 %
19.05.2017 01:00 15,4 C 15,4 C 15,4 C 90 % 1007,6 hPa 0,0 l/m 0,0 km/h (0 Bft) NW 315 0 min 0,000 mm 0 W/m 13,8 C 15,4 C 1,6 km/h (1 Bft) 100 %
19.05.2017 01:10 15,3 C 15,3 C 15,4 C 90 % 1007,5 hPa 0,0 l/m 0,0 km/h (0 Bft) N 0 0 min 0,000 mm 0 W/m 13,7 C 15,3 C 0,0 km/h (0 Bft) 100 %
19.05.2017 01:20 15,3 C 15,3 C 15,3 C 90 % 1007,4 hPa 0,0 l/m 0,0 km/h (0 Bft) N 0 0 min 0,000 mm 0 W/m 13,7 C 15,3 C 0,0 km/h (0 Bft) 99 %
19.05.2017 01:30 15,1 C 15,1 C 15,2 C 90 % 1007,3 hPa 0,0 l/m 0,0 km/h (0 Bft) N 0 0 min 0,000 mm 0 W/m 13,5 C 15,1 C 0,0 km/h (0 Bft) 100 %
19.05.2017 01:40 15,1 C 15,1 C 15,1 C 90 % 1007,3 hPa 0,0 l/m 0,0 km/h (0 Bft) N 0 0 min 0,000 mm 0 W/m 13,5 C 15,1 C 0,0 km/h (0 Bft) 100 %
19.05.2017 01:50 15,0 C 15,0 C 15,1 C 90 % 1007,3 hPa 0,0 l/m 0,0 km/h (0 Bft) N 0 0 min 0,000 mm 0 W/m 13,4 C 15,0 C 0,0 km/h (0 Bft) 99 %
19.05.2017 02:00 14,9 C 14,9 C 15,0 C 90 % 1007,3 hPa 0,0 l/m 0,0 km/h (0 Bft) N 0 0 min 0,000 mm 0 W/m 13,3 C 14,9 C 0,0 km/h (0 Bft) 100 %
19.05.2017 02:10 14,8 C 14,8 C 14,9 C 90 % 1007,2 hPa 0,0 l/m 0,0 km/h (0 Bft) N 0 0 min 0,000 mm 0 W/m 13,2 C 14,8 C 0,0 km/h (0 Bft) 99 %
19.05.2017 02:20 14,7 C 14,7 C 14,9 C 90 % 1007,9 hPa 0,0 l/m 1,6 km/h (1 Bft) W 270 0 min 0,000 mm 0 W/m 13,1 C 14,7 C 11,3 km/h (2 Bft) 100 %
19.05.2017 02:30 14,9 C 14,7 C 14,9 C 91 % 1007,8 hPa 0,0 l/m 1,6 km/h (1 Bft) SW 225 0 min 0,000 mm 0 W/m 13,4 C 14,9 C 14,5 km/h (3 Bft) 100 %
19.05.2017 02:40 15,0 C 14,9 C 15,1 C 91 % 1007,8 hPa 0,0 l/m 0,0 km/h (0 Bft) SW 225 0 min 0,000 mm 0 W/m 13,5 C 15,0 C 1,6 km/h (1 Bft) 100 %
19.05.2017 02:50 15,1 C 15,0 C 15,1 C 90 % 1007,6 hPa 0,0 l/m 0,0 km/h (0 Bft) N 0 0 min 0,000 mm 0 W/m 13,5 C 15,1 C 0,0 km/h (0 Bft) 100 %
19.05.2017 03:00 15,1 C 15,1 C 15,1 C 90 % 1007,7 hPa 0,0 l/m 0,0 km/h (0 Bft) SW 225 0 min 0,000 mm 0 W/m 13,5 C 15,1 C 1,6 km/h (1 Bft) 99 %
19.05.2017 03:10 15,1 C 15,1 C 15,1 C 90 % 1007,5 hPa 0,2 l/m 0,0 km/h (0 Bft) W-SW 247 0 min 0,000 mm 0 W/m 13,5 C 15,1 C 6,4 km/h (2 Bft) 100 %
19.05.2017 03:20 15,1 C 15,1 C 15,1 C 90 % 1007,9 hPa 0,8 l/m 0,0 km/h (0 Bft) W 270 0 min 0,000 mm 0 W/m 13,5 C 15,1 C 4,8 km/h (1 Bft) 100 %
19.05.2017 03:30 15,2 C 15,1 C 15,2 C 91 % 1008,1 hPa 4,2 l/m 3,2 km/h (1 Bft) N-NW 337 0 min 0,000 mm 0 W/m 13,7 C 15,2 C 6,4 km/h (2 Bft) 100 %
19.05.2017 03:40 15,3 C 15,2 C 15,3 C 91 % 1008,2 hPa 0,2 l/m 0,0 km/h (0 Bft) N-NW 337 0 min 0,000 mm 0 W/m 13,8 C 15,3 C 3,2 km/h (1 Bft) 100 %
19.05.2017 03:50 15,3 C 15,3 C 15,3 C 91 % 1008,6 hPa 0,2 l/m 0,0 km/h (0 Bft) N-NW 337 0 min 0,000 mm 0 W/m 13,8 C 15,3 C 1,6 km/h (1 Bft) 100 %
19.05.2017 04:00 15,3 C 15,3 C 15,3 C 91 % 1008,5 hPa 0,4 l/m 0,0 km/h (0 Bft) NW 315 0 min 0,000 mm 0 W/m 13,8 C 15,3 C 6,4 km/h (2 Bft) 100 %
19.05.2017 04:10 15,4 C 15,3 C 15,4 C 91 % 1008,3 hPa 0,8 l/m 3,2 km/h (1 Bft) N 360 0 min 0,000 mm 0 W/m 13,9 C 15,4 C 9,7 km/h (2 Bft) 100 %
19.05.2017 04:20 15,4 C 15,4 C 15,4 C 91 % 1008,8 hPa 0,4 l/m 0,0 km/h (0 Bft) N-NO 22 0 min 0,000 mm 0 W/m 13,9 C 15,4 C 4,8 km/h (1 Bft) 100 %
19.05.2017 04:30 15,3 C 15,3 C 15,4 C 91 % 1008,8 hPa 0,4 l/m 0,0 km/h (0 Bft) N-NO 22 0 min 0,000 mm 0 W/m 13,8 C 15,3 C 4,8 km/h (1 Bft) 100 %
19.05.2017 04:40 15,3 C 15,3 C 15,3 C 91 % 1008,9 hPa 0,6 l/m 3,2 km/h (1 Bft) N-NW 337 0 min 0,000 mm 0 W/m 13,8 C 15,3 C 8,0 km/h (2 Bft) 99 %
19.05.2017 04:50 15,2 C 15,2 C 15,3 C 91 % 1008,7 hPa 0,6 l/m 3,2 km/h (1 Bft) N-NW 337 0 min 0,000 mm 0 W/m 13,7 C 15,2 C 9,7 km/h (2 Bft) 100 %
19.05.2017 05:00 15,2 C 15,2 C 15,2 C 91 % 1008,8 hPa 0,8 l/m 0,0 km/h (0 Bft) N-NW 337 0 min 0,000 mm 0 W/m 13,7 C 15,2 C 4,8 km/h (1 Bft) 100 %
19.05.2017 05:10 15,2 C 15,2 C 15,2 C 91 % 1008,7 hPa 0,8 l/m 0,0 km/h (0 Bft) N 0 0 min 0,000 mm 0 W/m 13,7 C 15,2 C 0,0 km/h (0 Bft) 100 %
19.05.2017 05:20 15,1 C 15,1 C 15,2 C 91 % 1008,5 hPa 1,2 l/m 3,2 km/h (1 Bft) N-NW 337 0 min 0,000 mm 0 W/m 13,6 C 15,1 C 9,7 km/h (2 Bft) 100 %
19.05.2017 05:30 15,1 C 15,1 C 15,1 C 91 % 1008,4 hPa 0,2 l/m 4,8 km/h (1 Bft) N-NW 337 0 min 0,000 mm 0 W/m 13,6 C 15,1 C 12,9 km/h (3 Bft) 100 %
19.05.2017 05:40 14,9 C 14,9 C 15,1 C 91 % 1008,4 hPa 0,0 l/m 0,0 km/h (0 Bft) N-NW 337 0 min 0,000 mm 0 W/m 13,4 C 14,9 C 9,7 km/h (2 Bft) 100 %
19.05.2017 05:50 14,7 C 14,7 C 14,9 C 91 % 1008,3 hPa 0,2 l/m 0,0 km/h (0 Bft) N 0 0 min 0,000 mm 0 W/m 13,2 C 14,7 C 0,0 km/h (0 Bft) 100 %
19.05.2017 06:00 14,7 C 14,7 C 14,8 C 91 % 1008,5 hPa 0,0 l/m 0,0 km/h (0 Bft) W-SW 247 0 min 0,000 mm 0 W/m 13,2 C 14,7 C 6,4 km/h (2 Bft) 100 %
19.05.2017 06:10 14,6 C 14,6 C 14,7 C 91 % 1008,5 hPa 0,0 l/m 0,0 km/h (0 Bft) W-SW 247 0 min 0,000 mm 0 W/m 13,1 C 14,6 C 4,8 km/h (1 Bft) 100 %
19.05.2017 06:20 14,6 C 14,6 C 14,7 C 91 % 1008,3 hPa 0,0 l/m 0,0 km/h (0 Bft) N 0 0 min 0,000 mm 7 W/m 13,1 C 14,6 C 0,0 km/h (0 Bft) 100 %
19.05.2017 06:30 14,6 C 14,6 C 14,7 C 91 % 1008,2 hPa 0,0 l/m 0,0 km/h (0 Bft) N 0 0 min 0,000 mm 14 W/m 13,1 C 14,6 C 0,0 km/h (0 Bft) 100 %
19.05.2017 06:40 14,6 C 14,6 C 14,6 C 91 % 1008,3 hPa 0,0 l/m 0,0 km/h (0 Bft) N 0 0 min 0,000 mm 18 W/m 13,1 C 14,6 C 0,0 km/h (0 Bft) 100 %
19.05.2017 06:50 14,6 C 14,6 C 14,6 C 91 % 1008,3 hPa 0,0 l/m 0,0 km/h (0 Bft) N 0 0 min 0,000 mm 21 W/m 13,1 C 14,6 C 0,0 km/h (0 Bft) 100 %
19.05.2017 07:00 14,6 C 14,6 C 14,6 C 91 % 1008,1 hPa 0,0 l/m 0,0 km/h (0 Bft) N 0 0 min 0,000 mm 30 W/m 13,1 C 14,6 C 0,0 km/h (0 Bft) 100 %
19.05.2017 07:10 14,6 C 14,6 C 14,6 C 91 % 1008,1 hPa 0,0 l/m 0,0 km/h (0 Bft) N 0 0 min 0,000 mm 60 W/m 13,1 C 14,6 C 0,0 km/h (0 Bft) 100 %
19.05.2017 07:20 14,7 C 14,6 C 14,7 C 91 % 1007,8 hPa 0,0 l/m 0,0 km/h (0 Bft) N 0 0 min 0,000 mm 69 W/m 13,2 C 14,7 C 0,0 km/h (0 Bft) 99 %
19.05.2017 07:30 14,7 C 14,6 C 14,7 C 91 % 1007,8 hPa 0,0 l/m 0,0 km/h (0 Bft) W-SW 257 0 min 0,000 mm 84 W/m 13,2 C 14,7 C 0,0 km/h (0 Bft) 97 %
19.05.2017 07:40 14,8 C 14,7 C 14,8 C 91 % 1007,8 hPa 0,0 l/m 0,0 km/h (0 Bft) W-SW 257 0 min 0,000 mm 111 W/m 13,3 C 14,8 C 0,0 km/h (0 Bft) 98 %
19.05.2017 07:50 15,0 C 14,8 C 15,1 C 91 % 1008,0 hPa 0,0 l/m 0,0 km/h (0 Bft) W-SW 257 0 min 0,000 mm 142 W/m 13,5 C 15,0 C 0,0 km/h (0 Bft) 97 %
19.05.2017 08:00 15,1 C 15,0 C 15,1 C 91 % 1008,1 hPa 0,0 l/m 0,0 km/h (0 Bft) W-SW 257 0 min 0,051 mm 132 W/m 13,6 C 15,1 C 0,0 km/h (0 Bft) 97 %
19.05.2017 08:10 15,2 C 15,1 C 15,2 C 91 % 1008,4 hPa 0,0 l/m 0,6 km/h (0 Bft) W-SW 257 10 min 0,000 mm 176 W/m 13,7 C 15,2 C 3,2 km/h (1 Bft) 98 %
19.05.2017 08:20 15,3 C 15,2 C 15,3 C 91 % 1008,3 hPa 0,0 l/m 0,0 km/h (0 Bft) W-SW 257 10 min 0,000 mm 322 W/m 13,8 C 15,3 C 0,0 km/h (0 Bft) 97 %
19.05.2017 08:30 15,7 C 15,3 C 15,7 C 91 % 1008,1 hPa 0,0 l/m 0,0 km/h (0 Bft) W-SW 257 10 min 0,000 mm 343 W/m 14,2 C 15,7 C 0,0 km/h (0 Bft) 98 %
19.05.2017 08:40 16,3 C 15,7 C 16,3 C 91 % 1008,3 hPa 0,0 l/m 0,1 km/h (0 Bft) W 261 10 min 0,000 mm 283 W/m 14,8 C 16,3 C 3,2 km/h (1 Bft) 97 %
19.05.2017 08:50 16,7 C 16,3 C 16,7 C 91 % 1008,2 hPa 0,0 l/m 0,5 km/h (0 Bft) W 261 10 min 0,000 mm 220 W/m 15,2 C 16,7 C 4,8 km/h (1 Bft) 98 %
19.05.2017 09:00 16,6 C 16,6 C 16,7 C 91 % 1008,2 hPa 0,0 l/m 0,2 km/h (0 Bft) W 261 10 min 0,152 mm 186 W/m 15,1 C 16,6 C 3,2 km/h (1 Bft) 97 %
19.05.2017 09:10 16,4 C 16,4 C 16,6 C 91 % 1007,9 hPa 0,0 l/m 0,0 km/h (0 Bft) W 261 10 min 0,000 mm 232 W/m 14,9 C 16,4 C 1,6 km/h (1 Bft) 98 %
19.05.2017 09:20 16,6 C 16,4 C 16,6 C 91 % 1007,9 hPa 0,0 l/m 3,8 km/h (1 Bft) W 279 10 min 0,000 mm 267 W/m 15,1 C 16,6 C 8,0 km/h (2 Bft) 98 %
19.05.2017 09:30 16,7 C 16,6 C 16,7 C 91 % 1007,8 hPa 0,0 l/m 4,3 km/h (1 Bft) W 277 10 min 0,000 mm 294 W/m 15,2 C 16,7 C 9,7 km/h (2 Bft) 97 %
19.05.2017 09:40 16,9 C 16,7 C 16,9 C 91 % 1007,8 hPa 0,0 l/m 5,3 km/h (1 Bft) W-NW 285 10 min 0,000 mm 294 W/m 15,4 C 16,9 C 11,3 km/h (2 Bft) 98 %
19.05.2017 09:50 17,1 C 16,9 C 17,1 C 90 % 1007,8 hPa 0,0 l/m 4,0 km/h (1 Bft) W 279 10 min 0,000 mm 227 W/m 15,4 C 17,1 C 9,7 km/h (2 Bft) 97 %
19.05.2017 10:00 17,3 C 17,1 C 17,3 C 90 % 1007,7 hPa 0,0 l/m 2,8 km/h (1 Bft) W 279 10 min 0,127 mm 188 W/m 15,6 C 17,3 C 8,0 km/h (2 Bft) 97 %
19.05.2017 10:10 17,3 C 17,2 C 17,3 C 90 % 1007,8 hPa 0,0 l/m 2,9 km/h (1 Bft) W-NW 285 10 min 0,000 mm 272 W/m 15,6 C 17,3 C 11,3 km/h (2 Bft) 97 %
19.05.2017 10:20 17,4 C 17,3 C 17,4 C 90 % 1008,1 hPa 0,0 l/m 4,5 km/h (1 Bft) W-SW 250 10 min 0,000 mm 350 W/m 15,7 C 17,4 C 16,1 km/h (3 Bft) 97 %
19.05.2017 10:30 17,6 C 17,4 C 17,6 C 90 % 1008,0 hPa 0,0 l/m 6,6 km/h (2 Bft) W-SW 252 10 min 0,000 mm 237 W/m 15,9 C 17,5 C 14,5 km/h (3 Bft) 97 %
19.05.2017 10:40 17,4 C 17,4 C 17,6 C 88 % 1008,0 hPa 0,0 l/m 9,4 km/h (2 Bft) NW 304 10 min 0,000 mm 237 W/m 15,4 C 16,0 C 20,9 km/h (4 Bft) 98 %
19.05.2017 10:50 17,2 C 17,2 C 17,4 C 89 % 1008,1 hPa 0,0 l/m 8,3 km/h (2 Bft) W 270 10 min 0,000 mm 169 W/m 15,4 C 16,3 C 19,3 km/h (3 Bft) 99 %
19.05.2017 11:00 16,6 C 16,6 C 17,2 C 87 % 1008,4 hPa 0,0 l/m 13,7 km/h (3 Bft) SW 219 0 min 0,153 mm 72 W/m 14,4 C 13,5 C 37,0 km/h (5 Bft) 100 %
19.05.2017 11:10 15,1 C 15,1 C 16,6 C 88 % 1008,5 hPa 0,0 l/m 18,1 km/h (3 Bft) W 279 0 min 0,000 mm 63 W/m 13,1 C 10,4 C 33,8 km/h (5 Bft) 99 %
19.05.2017 11:20 13,9 C 13,9 C 15,1 C 89 % 1008,5 hPa 0,0 l/m 15,1 km/h (3 Bft) SW 220 0 min 0,000 mm 77 W/m 12,1 C 9,8 C 32,2 km/h (5 Bft) 99 %
19.05.2017 11:30 13,3 C 13,3 C 13,9 C 90 % 1008,6 hPa 0,0 l/m 11,0 km/h (2 Bft) NW 321 0 min 0,000 mm 67 W/m 11,7 C 10,8 C 32,2 km/h (5 Bft) 100 %
19.05.2017 11:40 12,9 C 12,9 C 13,3 C 90 % 1008,6 hPa 0,0 l/m 9,6 km/h (2 Bft) SW 229 0 min 0,000 mm 69 W/m 11,3 C 11,0 C 30,6 km/h (5 Bft) 99 %
19.05.2017 11:50 12,7 C 12,7 C 12,9 C 91 % 1008,7 hPa 0,0 l/m 7,3 km/h (2 Bft) W-NW 292 0 min 0,000 mm 77 W/m 11,3 C 12,1 C 20,9 km/h (4 Bft) 100 %
19.05.2017 12:00 12,6 C 12,6 C 12,7 C 91 % 1008,8 hPa 0,0 l/m 8,9 km/h (2 Bft) SW 232 0 min 0,050 mm 70 W/m 11,2 C 11,1 C 25,7 km/h (4 Bft) 100 %
19.05.2017 12:10 12,5 C 12,5 C 12,6 C 91 % 1008,8 hPa 0,0 l/m 7,8 km/h (2 Bft) W-NW 302 0 min 0,000 mm 51 W/m 11,1 C 11,6 C 27,4 km/h (4 Bft) 100 %
19.05.2017 12:20 12,6 C 12,5 C 12,6 C 91 % 1008,9 hPa 0,0 l/m 6,4 km/h (2 Bft) W-NW 290 0 min 0,000 mm 49 W/m 11,2 C 12,6 C 19,3 km/h (3 Bft) 100 %
19.05.2017 12:30 12,6 C 12,6 C 12,6 C 91 % 1009,2 hPa 0,0 l/m 6,6 km/h (2 Bft) W-SW 258 0 min 0,000 mm 39 W/m 11,2 C 12,5 C 17,7 km/h (3 Bft) 100 %
19.05.2017 12:40 12,6 C 12,6 C 12,6 C 91 % 1009,1 hPa 0,0 l/m 7,5 km/h (2 Bft) W 268 0 min 0,000 mm 56 W/m 11,2 C 11,9 C 19,3 km/h (3 Bft) 100 %
19.05.2017 12:50 12,7 C 12,6 C 12,7 C 91 % 1009,2 hPa 0,0 l/m 5,7 km/h (1 Bft) NW 306 0 min 0,000 mm 46 W/m 11,3 C 12,7 C 20,9 km/h (4 Bft) 100 %
19.05.2017 13:00 12,7 C 12,7 C 12,7 C 91 % 1009,4 hPa 0,0 l/m 7,4 km/h (2 Bft) W 259 0 min 0,026 mm 39 W/m 11,3 C 12,1 C 20,9 km/h (4 Bft) 100 %
19.05.2017 13:10 12,6 C 12,6 C 12,7 C 91 % 1009,6 hPa 0,0 l/m 5,4 km/h (1 Bft) W 264 0 min 0,000 mm 37 W/m 11,2 C 12,6 C 17,7 km/h (3 Bft) 99 %
19.05.2017 13:20 12,4 C 12,4 C 12,6 C 91 % 1009,7 hPa 0,2 l/m 5,6 km/h (1 Bft) W-NW 292 0 min 0,000 mm 49 W/m 11,0 C 12,4 C 27,4 km/h (4 Bft) 100 %
19.05.2017 13:30 12,3 C 12,3 C 12,4 C 91 % 1009,5 hPa 0,2 l/m 7,5 km/h (2 Bft) W 278 0 min 0,000 mm 116 W/m 10,9 C 11,6 C 22,5 km/h (4 Bft) 91 %
19.05.2017 13:40 12,3 C 12,2 C 12,3 C 91 % 1009,7 hPa 0,2 l/m 4,1 km/h (1 Bft) W 276 0 min 0,000 mm 102 W/m 10,9 C 12,3 C 20,9 km/h (4 Bft) 100 %
19.05.2017 13:50 12,1 C 12,1 C 12,3 C 91 % 1009,9 hPa 0,0 l/m 8,1 km/h (2 Bft) W-NW 288 0 min 0,000 mm 63 W/m 10,7 C 11,0 C 22,5 km/h (4 Bft) 100 %
19.05.2017 14:00 12,0 C 12,0 C 12,1 C 91 % 1009,9 hPa 0,0 l/m 6,0 km/h (2 Bft) W-SW 257 0 min 0,051 mm 60 W/m 10,6 C 12,0 C 22,5 km/h (4 Bft) 100 %
19.05.2017 14:10 11,9 C 11,9 C 12,0 C 91 % 1010,2 hPa 0,2 l/m 4,3 km/h (1 Bft) W-SW 246 0 min 0,000 mm 47 W/m 10,5 C 11,9 C 17,7 km/h (3 Bft) 100 %
19.05.2017 14:20 11,8 C 11,8 C 11,9 C 91 % 1010,3 hPa 0,0 l/m 4,8 km/h (1 Bft) W 263 0 min 0,000 mm 60 W/m 10,4 C 11,8 C 19,3 km/h (3 Bft) 100 %
19.05.2017 14:30 11,8 C 11,8 C 11,8 C 91 % 1010,4 hPa 0,0 l/m 8,0 km/h (2 Bft) W 273 0 min 0,000 mm 49 W/m 10,4 C 10,7 C 24,1 km/h (4 Bft) 100 %
19.05.2017 14:40 11,7 C 11,7 C 11,8 C 91 % 1010,5 hPa 0,2 l/m 8,6 km/h (2 Bft) W-NW 289 0 min 0,000 mm 54 W/m 10,3 C 10,3 C 25,7 km/h (4 Bft) 100 %
19.05.2017 14:50 11,7 C 11,7 C 11,7 C 91 % 1010,6 hPa 0,2 l/m 8,8 km/h (2 Bft) W 265 0 min 0,000 mm 54 W/m 10,3 C 10,1 C 24,1 km/h (4 Bft) 100 %
19.05.2017 15:00 11,6 C 11,6 C 11,7 C 91 % 1011,1 hPa 0,0 l/m 7,6 km/h (2 Bft) W-SW 257 0 min 0,025 mm 28 W/m 10,2 C 10,8 C 19,3 km/h (3 Bft) 100 %
19.05.2017 15:10 11,6 C 11,6 C 11,6 C 91 % 1011,4 hPa 0,4 l/m 7,2 km/h (2 Bft) W 275 0 min 0,000 mm 54 W/m 10,2 C 11,1 C 20,9 km/h (4 Bft) 100 %
19.05.2017 15:20 11,4 C 11,4 C 11,6 C 91 % 1011,4 hPa 0,6 l/m 5,9 km/h (2 Bft) W 263 0 min 0,000 mm 32 W/m 10,0 C 11,4 C 19,3 km/h (3 Bft) 99 %
19.05.2017 15:30 11,4 C 11,4 C 11,4 C 91 % 1011,6 hPa 0,4 l/m 6,7 km/h (2 Bft) W 262 0 min 0,000 mm 44 W/m 10,0 C 11,2 C 25,7 km/h (4 Bft) 99 %
19.05.2017 15:40 11,2 C 11,2 C 11,4 C 91 % 1011,4 hPa 0,4 l/m 9,8 km/h (2 Bft) W 271 0 min 0,000 mm 104 W/m 9,8 C 9,0 C 19,3 km/h (3 Bft) 100 %
19.05.2017 15:50 11,2 C 11,2 C 11,2 C 91 % 1011,7 hPa 0,2 l/m 10,8 km/h (2 Bft) W 270 0 min 0,000 mm 58 W/m 9,8 C 8,5 C 22,5 km/h (4 Bft) 100 %
19.05.2017 16:00 11,0 C 11,0 C 11,2 C 91 % 1011,9 hPa 0,0 l/m 10,5 km/h (2 Bft) W 263 0 min 0,025 mm 23 W/m 9,6 C 8,4 C 22,5 km/h (4 Bft) 100 %
19.05.2017 16:10 10,8 C 10,8 C 11,0 C 91 % 1012,2 hPa 0,0 l/m 11,7 km/h (2 Bft) W 260 0 min 0,000 mm 37 W/m 9,4 C 7,6 C 24,1 km/h (4 Bft) 100 %
19.05.2017 16:20 10,7 C 10,7 C 10,8 C 91 % 1012,4 hPa 0,4 l/m 10,5 km/h (2 Bft) W-SW 258 0 min 0,000 mm 35 W/m 9,3 C 8,1 C 24,1 km/h (4 Bft) 100 %
19.05.2017 16:30 10,7 C 10,6 C 10,7 C 91 % 1012,5 hPa 0,4 l/m 11,5 km/h (2 Bft) W-SW 250 0 min 0,000 mm 49 W/m 9,3 C 7,6 C 30,6 km/h (5 Bft) 100 %
19.05.2017 16:40 10,6 C 10,6 C 10,7 C 91 % 1012,4 hPa 0,4 l/m 9,0 km/h (2 Bft) W-SW 250 0 min 0,000 mm 47 W/m 9,2 C 8,8 C 19,3 km/h (3 Bft) 100 %
19.05.2017 16:50 10,6 C 10,6 C 10,6 C 91 % 1012,6 hPa 0,4 l/m 4,2 km/h (1 Bft) SW 218 0 min 0,000 mm 35 W/m 9,2 C 10,6 C 19,3 km/h (3 Bft) 100 %
19.05.2017 17:00 10,5 C 10,5 C 10,6 C 91 % 1012,8 hPa 0,0 l/m 5,3 km/h (1 Bft) W-SW 246 0 min 0,026 mm 90 W/m 9,1 C 10,5 C 19,3 km/h (3 Bft) 100 %
19.05.2017 17:10 10,6 C 10,5 C 10,6 C 91 % 1012,9 hPa 0,0 l/m 6,0 km/h (2 Bft) SW 232 0 min 0,000 mm 105 W/m 9,2 C 10,6 C 19,3 km/h (3 Bft) 100 %
19.05.2017 17:20 10,5 C 10,5 C 10,6 C 91 % 1013,2 hPa 0,0 l/m 8,0 km/h (2 Bft) W 268 0 min 0,000 mm 74 W/m 9,1 C 9,4 C 25,7 km/h (4 Bft) 100 %
19.05.2017 17:30 10,5 C 10,5 C 10,5 C 91 % 1013,4 hPa 0,0 l/m 10,5 km/h (2 Bft) W 267 0 min 0,000 mm 63 W/m 9,1 C 7,9 C 25,7 km/h (4 Bft) 100 %
19.05.2017 17:40 10,3 C 10,3 C 10,5 C 91 % 1013,4 hPa 0,0 l/m 10,7 km/h (2 Bft) W-SW 256 0 min 0,000 mm 60 W/m 8,9 C 7,5 C 27,4 km/h (4 Bft) 100 %
19.05.2017 17:50 10,3 C 10,3 C 10,3 C 91 % 1013,4 hPa 0,0 l/m 8,5 km/h (2 Bft) W 263 0 min 0,000 mm 47 W/m 8,9 C 8,8 C 20,9 km/h (4 Bft) 99 %
19.05.2017 18:00 10,3 C 10,3 C 10,3 C 91 % 1013,4 hPa 0,0 l/m 7,1 km/h (2 Bft) W-SW 252 0 min 0,000 mm 53 W/m 8,9 C 9,8 C 16,1 km/h (3 Bft) 100 %
19.05.2017 18:10 10,3 C 10,3 C 10,3 C 91 % 1013,3 hPa 0,0 l/m 9,3 km/h (2 Bft) W 259 0 min 0,051 mm 23 W/m 8,9 C 8,3 C 20,9 km/h (4 Bft) 100 %
19.05.2017 18:20 10,2 C 10,2 C 10,3 C 91 % 1013,4 hPa 0,0 l/m 9,3 km/h (2 Bft) W 273 0 min 0,000 mm 35 W/m 8,8 C 8,2 C 20,9 km/h (4 Bft) 100 %
19.05.2017 18:30 10,2 C 10,2 C 10,2 C 91 % 1013,7 hPa 0,0 l/m 6,4 km/h (2 Bft) SW 236 0 min 0,000 mm 30 W/m 8,8 C 10,2 C 17,7 km/h (3 Bft) 100 %
19.05.2017 18:40 10,1 C 10,1 C 10,2 C 91 % 1014,1 hPa 0,0 l/m 7,3 km/h (2 Bft) SW 236 0 min 0,000 mm 16 W/m 8,7 C 9,4 C 20,9 km/h (4 Bft) 100 %
19.05.2017 18:50 9,9 C 9,9 C 10,1 C 91 % 1014,5 hPa 0,0 l/m 6,8 km/h (2 Bft) SW 214 0 min 0,000 mm 16 W/m 8,5 C 9,6 C 22,5 km/h (4 Bft) 100 %
19.05.2017 19:00 9,9 C 9,9 C 10,0 C 91 % 1014,6 hPa 0,2 l/m 5,7 km/h (1 Bft) SW 228 0 min 0,025 mm 23 W/m 8,5 C 9,9 C 14,5 km/h (3 Bft) 100 %
19.05.2017 19:10 9,9 C 9,9 C 9,9 C 91 % 1014,7 hPa 0,2 l/m 6,8 km/h (2 Bft) S-SW 210 0 min 0,000 mm 30 W/m 8,5 C 9,6 C 19,3 km/h (3 Bft) 100 %
19.05.2017 19:20 9,8 C 9,8 C 9,9 C 91 % 1015,0 hPa 0,4 l/m 8,1 km/h (2 Bft) SW 221 0 min 0,000 mm 18 W/m 8,4 C 8,6 C 19,3 km/h (3 Bft) 100 %
19.05.2017 19:30 9,7 C 9,7 C 9,8 C 91 % 1015,0 hPa 0,0 l/m 10,3 km/h (2 Bft) W-SW 244 0 min 0,000 mm 28 W/m 8,3 C 7,1 C 25,7 km/h (4 Bft) 100 %
19.05.2017 19:40 9,6 C 9,6 C 9,7 C 91 % 1015,3 hPa 0,0 l/m 7,2 km/h (2 Bft) SW 217 0 min 0,000 mm 18 W/m 8,2 C 9,0 C 16,1 km/h (3 Bft) 100 %
19.05.2017 19:50 9,6 C 9,6 C 9,6 C 91 % 1015,3 hPa 0,0 l/m 7,1 km/h (2 Bft) W-SW 238 0 min 0,000 mm 18 W/m 8,2 C 9,1 C 19,3 km/h (3 Bft) 100 %
19.05.2017 20:00 9,6 C 9,6 C 9,6 C 91 % 1015,6 hPa 0,0 l/m 5,7 km/h (1 Bft) SW 215 0 min 0,025 mm 19 W/m 8,2 C 9,6 C 16,1 km/h (3 Bft) 100 %
19.05.2017 20:10 9,6 C 9,6 C 9,6 C 91 % 1015,8 hPa 0,0 l/m 6,8 km/h (2 Bft) S-SW 212 0 min 0,000 mm 14 W/m 8,2 C 9,3 C 16,1 km/h (3 Bft) 100 %
19.05.2017 20:20 9,6 C 9,6 C 9,6 C 91 % 1015,8 hPa 0,0 l/m 4,9 km/h (1 Bft) W-SW 242 0 min 0,000 mm 16 W/m 8,2 C 9,6 C 11,3 km/h (2 Bft) 100 %
19.05.2017 20:30 9,6 C 9,6 C 9,6 C 91 % 1015,8 hPa 0,0 l/m 4,9 km/h (1 Bft) S-SW 198 0 min 0,000 mm 9 W/m 8,2 C 9,6 C 11,3 km/h (2 Bft) 100 %
19.05.2017 20:40 9,7 C 9,6 C 9,7 C 91 % 1015,9 hPa 0,0 l/m 4,4 km/h (1 Bft) W-SW 248 0 min 0,000 mm 5 W/m 8,3 C 9,7 C 16,1 km/h (3 Bft) 100 %
19.05.2017 20:50 9,7 C 9,7 C 9,7 C 92 % 1016,0 hPa 0,0 l/m 7,5 km/h (2 Bft) SW 229 0 min 0,000 mm 5 W/m 8,5 C 8,9 C 20,9 km/h (4 Bft) 100 %
19.05.2017 21:00 9,6 C 9,6 C 9,7 C 91 % 1016,2 hPa 0,0 l/m 8,0 km/h (2 Bft) S-SW 206 0 min 0,000 mm 0 W/m 8,2 C 8,4 C 17,7 km/h (3 Bft) 100 %
19.05.2017 21:10 9,6 C 9,6 C 9,6 C 91 % 1016,3 hPa 0,0 l/m 9,7 km/h (2 Bft) S-SW 202 0 min 0,000 mm 0 W/m 8,2 C 7,3 C 17,7 km/h (3 Bft) 100 %
19.05.2017 21:20 9,5 C 9,5 C 9,6 C 92 % 1016,3 hPa 0,0 l/m 6,4 km/h (2 Bft) S-SW 202 0 min 0,000 mm 0 W/m 8,3 C 9,5 C 16,1 km/h (3 Bft) 100 %
19.05.2017 21:30 9,4 C 9,4 C 9,5 C 92 % 1016,6 hPa 0,0 l/m 8,0 km/h (2 Bft) S-SW 202 0 min 0,000 mm 0 W/m 8,2 C 8,2 C 16,1 km/h (3 Bft) 100 %
19.05.2017 21:40 9,3 C 9,3 C 9,4 C 92 % 1016,7 hPa 0,0 l/m 11,3 km/h (2 Bft) S-SW 202 0 min 0,000 mm 0 W/m 8,1 C 6,1 C 19,3 km/h (3 Bft) 100 %
19.05.2017 21:50 9,3 C 9,3 C 9,3 C 91 % 1016,9 hPa 0,0 l/m 9,7 km/h (2 Bft) S-SW 202 0 min 0,000 mm 0 W/m 7,9 C 7,0 C 19,3 km/h (3 Bft) 100 %
19.05.2017 22:00 9,2 C 9,2 C 9,3 C 92 % 1016,9 hPa 0,0 l/m 8,0 km/h (2 Bft) S-SW 202 0 min 0,000 mm 0 W/m 8,0 C 8,0 C 16,1 km/h (3 Bft) 100 %
19.05.2017 22:10 9,1 C 9,1 C 9,2 C 92 % 1016,8 hPa 0,0 l/m 8,0 km/h (2 Bft) S-SW 202 0 min 0,000 mm 0 W/m 7,9 C 7,9 C 16,1 km/h (3 Bft) 100 %
19.05.2017 22:20 9,1 C 9,1 C 9,1 C 92 % 1016,6 hPa 0,0 l/m 4,8 km/h (1 Bft) S-SW 202 0 min 0,000 mm 0 W/m 7,9 C 9,1 C 11,3 km/h (2 Bft) 100 %
19.05.2017 22:30 8,9 C 8,9 C 9,1 C 92 % 1016,8 hPa 0,0 l/m 6,4 km/h (2 Bft) SW 225 0 min 0,000 mm 0 W/m 7,7 C 8,9 C 17,7 km/h (3 Bft) 99 %
19.05.2017 22:40 8,9 C 8,9 C 8,9 C 91 % 1016,9 hPa 0,0 l/m 4,8 km/h (1 Bft) SW 225 0 min 0,000 mm 0 W/m 7,5 C 8,9 C 14,5 km/h (3 Bft) 100 %
19.05.2017 22:50 8,8 C 8,8 C 8,9 C 91 % 1017,0 hPa 0,0 l/m 6,4 km/h (2 Bft) SW 225 0 min 0,000 mm 0 W/m 7,4 C 8,8 C 17,7 km/h (3 Bft) 100 %
19.05.2017 23:00 8,7 C 8,7 C 8,8 C 91 % 1017,0 hPa 0,0 l/m 6,4 km/h (2 Bft) SW 225 0 min 0,000 mm 0 W/m 7,3 C 8,7 C 14,5 km/h (3 Bft) 100 %
19.05.2017 23:10 8,6 C 8,6 C 8,7 C 91 % 1017,1 hPa 0,0 l/m 1,6 km/h (1 Bft) SW 225 0 min 0,000 mm 0 W/m 7,2 C 8,6 C 8,0 km/h (2 Bft) 100 %
19.05.2017 23:20 8,6 C 8,6 C 8,6 C 91 % 1017,1 hPa 0,0 l/m 0,0 km/h (0 Bft) SW 225 0 min 0,000 mm 0 W/m 7,2 C 8,6 C 4,8 km/h (1 Bft) 100 %
19.05.2017 23:30 8,4 C 8,4 C 8,6 C 91 % 1017,3 hPa 0,0 l/m 0,0 km/h (0 Bft) N 0 0 min 0,000 mm 0 W/m 7,0 C 8,4 C 0,0 km/h (0 Bft) 100 %
19.05.2017 23:40 8,3 C 8,3 C 8,4 C 91 % 1017,5 hPa 0,0 l/m 1,6 km/h (1 Bft) S-SW 202 0 min 0,000 mm 0 W/m 6,9 C 8,3 C 8,0 km/h (2 Bft) 98 %
19.05.2017 23:50 8,2 C 8,2 C 8,3 C 91 % 1017,6 hPa 0,0 l/m 1,6 km/h (1 Bft) S-SW 202 0 min 0,000 mm 0 W/m 6,8 C 8,2 C 6,4 km/h (2 Bft) 99 %
_ Min-Zeit 23:50 23:50 23:50 11:00 02:10 - 00:40 - - - - - 23:50 21:40 00:40 00:20
Minimum _ 8,2 C 8,2 C 8,3 C 87 % 1007,2 hPa - 0,0 km/h (0 Bft) - - - - - 6,8 C 6,1 C 0,0 km/h (0 Bft) 89 %
_ Max-Zeit 10:30 10:30 10:30 20:50 23:50 03:30 11:10 - - 08:10 11:00 10:20 10:30 10:30 11:00 00:30
Maximum _ 17,6 C 17,4 C 17,6 C 92 % 1017,6 hPa 4,2 l/m 18,1 km/h
W (3 Bft)
- - 10 min 0,153 mm 350 W/m 15,9 C 17,5 C 37,0 km/h
S-SW (5 Bft)
100 %
Durchschnitt _ 12,9 C 12,9 C 13,0 C 91 % 1010,7 hPa #17,6 l/m 4,6 km/h (1 Bft) W - #2:50 h #0,787 mm 89 W/m 11,5 C 12,4 C 13,0 km/h (3 Bft) 99 %
PRIVATE WETTERSTATION BILLIGHEIM-ALLFELD - www.neckar-odenwald-wetter.de - Holger Sonntag